Location: Newark
(35.2161°N, 26.1013°E)
Time: 16:50:45
(UTC+00:00)

BEESAT 2 - Pass Details

Date: 27 January 2020
Orbit: 493 x 534 km, 64.9° (Epoch: 17 February)

Event Time Altitude Azimuth Distance (km) Brightness Sun altitude
Rises 17:27:13 0° 192° (SSW) 2,608 ? -22.3°
Reaches altitude 10° 17:29:26 10° 184° (S) 1,733 ? -22.8°
Enters shadow 17:30:44 19° 175° (S) 1,262 ? -23.0°
